Flag for Canada Weather past 2 weeks in Yellowknife, Northwest Territories, Canada

Now
46 °F

Cloudy.


Feels Like: 46 °F
Forecast: 39 / 56 °F
Wind: 2 mph from South

Location: Yellowknife

Current Time: Sep 17, 2014 at 8:33:20 PM

Latest Report: Sep 17, 2014 at 8:00 PM


Visibility: 15 mi

Pressure: 29.54 "Hg

Humidity: 87%

Dew point: 43 °F

Location of YellowknifeLocation

Historic Weather in Yellowknife — Graph

°F

Yellowknife temperature yesterday

Maximum temperature yesterday: 46 °F (at 4:00 PM)
Minimum temperature yesterday: 30 °F (at 6:00 AM)
Average temperature yesterday: 38 °F

Past Weeks' High & Low Weather Summary

 TemperatureHumidityPressure
High57 °F (Sep 2, 7:00 PM)100% (Sep 3, 2:00 AM)30.50 "Hg (Sep 3, 2:00 AM)
Low28 °F (Sep 6, 6:00 AM)34% (Sep 16, 6:00 PM)29.54 "Hg (Sep 17, 7:00 PM)
Average42 °F69%30.08 "Hg
* Reported Sep 2 7:00 PM — Sep 17 7:00 PM, Yellowknife, Weather by CustomWeather, © 2014

Note: Actual official high and low records may vary slightly from our data, if they occured in-between our weather recording intervals... More about our weather records

Advertising

Yellowknife weather history for previous 24 hours

 ConditionsComfort  
Time TempWeatherWind HumidityBarometerVisibility
7:00 PM
Sep 17
48 °FOvercast.5 mph82%29.54 "Hg15 mi
6:00 PM48 °FMostly cloudy.9 mph76%29.55 "Hg15 mi
5:00 PM48 °FMore clouds than sun.14 mph76%29.56 "Hg15 mi
4:00 PM48 °FPartly sunny.14 mph76%29.57 "Hg15 mi
3:00 PM48 °FMostly cloudy.16 mph76%29.59 "Hg15 mi
2:00 PM46 °FMostly cloudy.16 mph82%29.61 "Hg15 mi
1:00 PM46 °FMostly cloudy.18 mph82%29.63 "Hg15 mi
12:00 PM45 °FMostly cloudy.15 mph87%29.65 "Hg15 mi
11:00 AM45 °FLow clouds.16 mph87%29.67 "Hg15 mi
10:00 AM43 °FLow clouds.20 mph93%29.68 "Hg15 mi
9:00 AM43 °FLow clouds.22 mph87%29.70 "Hg15 mi
8:00 AM43 °FLow clouds.22 mph87%29.73 "Hg15 mi
7:00 AM43 °FMostly cloudy.17 mph87%29.75 "Hg15 mi
6:00 AM43 °FPartly cloudy.16 mph87%29.80 "Hg15 mi
5:07 AM43 °FPartly cloudy.20 mph81%29.81 "Hg15 mi
4:00 AM43 °FPartly cloudy.18 mph76%29.84 "Hg15 mi
3:00 AM41 °FPartly cloudy.12 mph76%29.86 "Hg15 mi
2:00 AM41 °FPassing clouds.13 mph70%29.90 "Hg15 mi
1:00 AM39 °FPassing clouds.12 mph65%29.93 "Hg15 mi
12:00 AM39 °FPassing clouds.13 mph61%29.94 "Hg15 mi
11:00 PM
Sep 16
39 °FPassing clouds.14 mph61%29.96 "Hg15 mi
10:00 PM39 °FPassing clouds.13 mph61%29.98 "Hg15 mi
9:00 PM41 °FPassing clouds.13 mph53%30.00 "Hg15 mi
8:00 PM41 °FPassing clouds.13 mph53%30.02 "Hg15 mi
Weather by CustomWeather, © 2014

See weather overviewHow to use our weather pages